Time,TemperatureF,DewpointF,PressureIn,WindDirection,WindDirectionDegrees,WindSpeedMPH,WindSpeedGustMPH,Humidity,HourlyPrecipIn,Conditions,Clouds,dailyrainin,SoftwareType,DateUTC
2013-03-05 00:01:00,27.3,6.8,30.06,West,277,0.0,0.0,41,0.00,,,0.00,WeatherCatV1.12B45,2013-03-05 08:01:00,
2013-03-05 00:06:00,27.3,6.8,30.06,West,277,0.0,0.0,41,0.00,,,0.00,WeatherCatV1.12B45,2013-03-05 08:06:00,
2013-03-05 00:11:00,27.3,6.8,30.06,WNW,294,0.0,0.0,41,0.00,,,0.00,WeatherCatV1.12B45,2013-03-05 08:11:00,
2013-03-05 00:16:00,27.5,6.9,30.06,WNW,294,0.0,0.0,41,0.00,,,0.00,WeatherCatV1.12B45,2013-03-05 08:16:00,
2013-03-05 00:21:00,27.7,7.1,30.06,WNW,294,0.0,0.0,41,0.00,,,0.00,WeatherCatV1.12B45,2013-03-05 08:21:00,
2013-03-05 00:26:00,27.5,6.9,30.06,WNW,294,0.0,0.0,41,0.00,,,0.00,WeatherCatV1.12B45,2013-03-05 08:26:00,
2013-03-05 00:31:00,27.5,6.9,30.06,SE,134,0.0,0.0,41,0.00,,,0.00,WeatherCatV1.12B45,2013-03-05 08:31:00,
2013-03-05 00:36:00,27.7,7.1,30.06,SE,134,0.0,0.0,41,0.00,,,0.00,WeatherCatV1.12B45,2013-03-05 08:36:00,
2013-03-05 00:41:00,27.9,7.2,30.06,NW,311,0.0,0.0,41,0.00,,,0.00,WeatherCatV1.12B45,2013-03-05 08:41:00,
2013-03-05 00:42:00,27.9,7.2,30.06,NW,311,0.0,0.0,41,0.00,,,0.00,WeatherCatV1.12B45,2013-03-05 08:42:00,
2013-03-05 00:47:00,28.2,7.6,30.06,NW,311,0.0,0.0,41,0.00,,,0.00,WeatherCatV1.12B45,2013-03-05 08:47:00,
2013-03-05 00:52:00,28.2,7.6,30.06,West,267,0.0,0.0,41,0.00,,,0.00,WeatherCatV1.12B45,2013-03-05 08:52:00,
2013-03-05 00:57:00,28.2,7.6,30.06,WNW,293,0.0,0.0,41,0.00,,,0.00,WeatherCatV1.12B45,2013-03-05 08:57:00,
2013-03-05 01:02:00,28.4,7.7,30.06,WNW,292,0.0,0.0,41,0.00,,,0.00,WeatherCatV1.12B45,2013-03-05 09:02:00,
2013-03-05 01:07:00,28.4,7.7,30.06,WNW,293,0.0,0.0,41,0.00,,,0.00,WeatherCatV1.12B45,2013-03-05 09:07:00,
2013-03-05 01:12:00,28.6,7.9,30.06,WSW,242,0.0,0.0,41,0.00,,,0.00,WeatherCatV1.12B45,2013-03-05 09:12:00,
2013-03-05 01:17:00,28.6,7.9,30.06,WSW,242,0.0,0.0,41,0.00,,,0.00,WeatherCatV1.12B45,2013-03-05 09:17:00,
2013-03-05 01:22:00,28.2,7.6,30.06,WSW,242,0.0,0.0,41,0.00,,,0.00,WeatherCatV1.12B45,2013-03-05 09:22:00,
2013-03-05 01:27:00,28.2,7.6,30.06,WNW,297,0.0,0.0,41,0.00,,,0.00,WeatherCatV1.12B45,2013-03-05 09:27:00,
2013-03-05 01:32:00,28.2,7.6,30.06,WNW,292,0.0,0.0,41,0.00,,,0.00,WeatherCatV1.12B45,2013-03-05 09:32:00,
2013-03-05 01:37:00,28.2,7.6,30.06,WNW,292,0.0,0.0,41,0.00,,,0.00,WeatherCatV1.12B45,2013-03-05 09:37:00,
2013-03-05 01:42:00,28.4,7.7,30.06,WSW,246,0.0,0.0,41,0.00,,,0.00,WeatherCatV1.12B45,2013-03-05 09:42:00,
2013-03-05 01:47:00,28.4,7.7,30.06,WSW,246,0.0,0.0,41,0.00,,,0.00,WeatherCatV1.12B45,2013-03-05 09:47:00,
2013-03-05 01:52:00,28.2,7.6,30.06,WSW,246,0.0,0.0,41,0.00,,,0.00,WeatherCatV1.12B45,2013-03-05 09:52:00,
2013-03-05 01:57:00,28.0,7.4,30.06,WSW,246,0.0,0.0,41,0.00,,,0.00,WeatherCatV1.12B45,2013-03-05 09:57:00,
2013-03-05 02:02:00,27.9,7.8,30.06,WSW,246,0.0,0.0,42,0.00,,,0.00,WeatherCatV1.12B45,2013-03-05 10:02:00,
2013-03-05 02:07:00,27.7,7.6,30.06,WSW,246,0.0,0.0,42,0.00,,,0.00,WeatherCatV1.12B45,2013-03-05 10:07:00,
2013-03-05 02:12:00,27.9,7.8,30.06,WSW,246,0.0,0.0,42,0.00,,,0.00,WeatherCatV1.12B45,2013-03-05 10:12:00,
2013-03-05 02:17:00,27.7,7.6,30.06,WSW,246,0.0,0.0,42,0.00,,,0.00,WeatherCatV1.12B45,2013-03-05 10:17:00,
2013-03-05 02:22:00,27.7,7.6,30.06,WSW,246,0.0,0.0,42,0.00,,,0.00,WeatherCatV1.12B45,2013-03-05 10:22:00,
2013-03-05 02:27:00,27.7,7.6,30.06,WSW,246,0.0,0.0,42,0.00,,,0.00,WeatherCatV1.12B45,2013-03-05 10:27:00,
2013-03-05 02:32:00,27.7,7.6,30.06,WSW,246,0.0,0.0,42,0.00,,,0.00,WeatherCatV1.12B45,2013-03-05 10:32:00,
2013-03-05 02:37:00,27.3,7.3,30.06,WSW,246,0.0,0.0,42,0.00,,,0.00,WeatherCatV1.12B45,2013-03-05 10:37:00,
2013-03-05 02:42:00,27.3,7.3,30.06,WSW,246,0.0,0.0,42,0.00,,,0.00,WeatherCatV1.12B45,2013-03-05 10:42:00,
2013-03-05 02:47:00,27.1,7.1,30.03,WSW,246,0.0,0.0,42,0.00,,,0.00,WeatherCatV1.12B45,2013-03-05 10:47:00,
2013-03-05 02:52:00,27.1,7.1,30.03,WSW,246,0.0,0.0,42,0.00,,,0.00,WeatherCatV1.12B45,2013-03-05 10:52:00,
2013-03-05 02:57:00,27.1,7.1,30.03,WSW,242,0.0,0.0,42,0.00,,,0.00,WeatherCatV1.12B45,2013-03-05 10:57:00,
2013-03-05 03:02:00,27.1,7.1,30.03,WSW,243,0.0,0.0,42,0.00,,,0.00,WeatherCatV1.12B45,2013-03-05 11:02:00,
2013-03-05 03:07:00,27.3,7.3,30.03,WSW,243,0.0,0.0,42,0.00,,,0.00,WeatherCatV1.12B45,2013-03-05 11:07:00,
2013-03-05 03:12:00,27.5,7.5,30.03,WSW,243,0.0,0.0,42,0.00,,,0.00,WeatherCatV1.12B45,2013-03-05 11:12:00,
2013-03-05 03:17:00,27.7,7.6,30.03,WSW,243,0.0,0.0,42,0.00,,,0.00,WeatherCatV1.12B45,2013-03-05 11:17:00,
2013-03-05 03:22:00,27.7,7.6,30.03,WSW,243,0.0,0.0,42,0.00,,,0.00,WeatherCatV1.12B45,2013-03-05 11:22:00,
2013-03-05 03:27:00,27.9,7.8,30.03,WSW,243,0.0,0.0,42,0.00,,,0.00,WeatherCatV1.12B45,2013-03-05 11:27:00,
2013-03-05 03:32:00,27.9,7.8,30.03,NE,48,0.0,0.0,42,0.00,,,0.00,WeatherCatV1.12B45,2013-03-05 11:32:00,
2013-03-05 03:37:00,28.2,8.1,30.03,NE,48,0.0,0.0,42,0.00,,,0.00,WeatherCatV1.12B45,2013-03-05 11:37:00,
2013-03-05 03:42:00,28.4,8.3,30.03,NE,48,0.0,0.0,42,0.00,,,0.00,WeatherCatV1.12B45,2013-03-05 11:42:00,
2013-03-05 03:47:00,28.6,7.9,30.03,West,268,0.0,0.0,41,0.00,,,0.00,WeatherCatV1.12B45,2013-03-05 11:47:00,
2013-03-05 03:52:00,28.6,7.9,30.03,West,268,0.0,0.0,41,0.00,,,0.00,WeatherCatV1.12B45,2013-03-05 11:52:00,
2013-03-05 03:57:00,28.6,7.9,30.03,West,265,0.0,0.0,41,0.00,,,0.00,WeatherCatV1.12B45,2013-03-05 11:57:00,
2013-03-05 04:02:00,28.6,7.9,30.03,West,265,0.0,0.0,41,0.00,,,0.00,WeatherCatV1.12B45,2013-03-05 12:02:00,
2013-03-05 04:07:00,28.2,8.1,30.03,West,265,0.0,0.0,42,0.00,,,0.00,WeatherCatV1.12B45,2013-03-05 12:07:00,
2013-03-05 04:12:00,28.2,8.1,30.03,West,265,0.0,0.0,42,0.00,,,0.00,WeatherCatV1.12B45,2013-03-05 12:12:00,
2013-03-05 04:17:00,28.2,8.1,30.03,SSW,206,0.0,0.0,42,0.00,,,0.00,WeatherCatV1.12B45,2013-03-05 12:17:00,
2013-03-05 04:22:00,28.2,8.1,30.03,SSW,206,0.0,0.0,42,0.00,,,0.00,WeatherCatV1.12B45,2013-03-05 12:22:00,
2013-03-05 04:27:00,28.4,8.3,30.03,SSE,159,0.0,0.0,42,0.00,,,0.00,WeatherCatV1.12B45,2013-03-05 12:27:00,
2013-03-05 04:32:00,28.4,8.3,30.03,WSW,250,0.0,0.0,42,0.00,,,0.00,WeatherCatV1.12B45,2013-03-05 12:32:00,
2013-03-05 04:38:00,28.2,8.1,30.03,WSW,250,0.0,0.0,42,0.00,,,0.00,WeatherCatV1.12B45,2013-03-05 12:38:00,
2013-03-05 04:43:00,28.2,8.1,30.03,WSW,251,0.0,0.0,42,0.00,,,0.00,WeatherCatV1.12B45,2013-03-05 12:43:00,
2013-03-05 04:48:00,28.4,8.3,30.03,WSW,251,0.0,0.0,42,0.00,,,0.00,WeatherCatV1.12B45,2013-03-05 12:48:00,
2013-03-05 04:53:00,28.4,8.3,30.03,WSW,250,0.0,0.0,42,0.00,,,0.00,WeatherCatV1.12B45,2013-03-05 12:53:00,
2013-03-05 04:58:00,28.2,8.1,30.03,North,0,0.0,0.0,42,0.00,,,0.00,WeatherCatV1.12B45,2013-03-05 12:58:00,
2013-03-05 05:03:00,28.4,8.3,30.03,North,0,0.0,0.0,42,0.00,,,0.00,WeatherCatV1.12B45,2013-03-05 13:03:00,
2013-03-05 05:08:00,28.0,7.9,30.03,North,0,0.0,0.0,42,0.00,,,0.00,WeatherCatV1.12B45,2013-03-05 13:08:00,
2013-03-05 05:13:00,28.0,7.9,30.03,North,0,0.0,0.0,42,0.00,,,0.00,WeatherCatV1.12B45,2013-03-05 13:13:00,
2013-03-05 05:18:00,27.9,7.8,30.03,North,0,0.0,0.0,42,0.00,,,0.00,WeatherCatV1.12B45,2013-03-05 13:18:00,
2013-03-05 05:23:00,27.7,7.6,30.03,North,9,0.0,0.0,42,0.00,,,0.00,WeatherCatV1.12B45,2013-03-05 13:23:00,
2013-03-05 05:28:00,27.7,7.6,30.03,North,9,0.0,0.0,42,0.00,,,0.00,WeatherCatV1.12B45,2013-03-05 13:28:00,
2013-03-05 05:33:00,27.7,7.6,30.03,North,9,0.0,0.0,42,0.00,,,0.00,WeatherCatV1.12B45,2013-03-05 13:33:00,
2013-03-05 05:38:00,27.5,7.5,30.03,North,9,0.0,0.0,42,0.00,,,0.00,WeatherCatV1.12B45,2013-03-05 13:38:00,
2013-03-05 05:43:00,27.7,7.6,30.03,North,9,0.0,0.0,42,0.00,,,0.00,WeatherCatV1.12B45,2013-03-05 13:43:00,
2013-03-05 05:48:00,27.9,7.8,30.03,North,9,0.0,0.0,42,0.00,,,0.00,WeatherCatV1.12B45,2013-03-05 13:48:00,
2013-03-05 05:53:00,27.9,7.8,30.03,North,9,0.0,0.0,42,0.00,,,0.00,WeatherCatV1.12B45,2013-03-05 13:53:00,
2013-03-05 05:58:00,27.9,7.8,30.03,North,9,0.0,0.0,42,0.00,,,0.00,WeatherCatV1.12B45,2013-03-05 13:58:00,
2013-03-05 06:03:00,27.9,7.8,30.03,North,9,0.0,0.0,42,0.00,,,0.00,WeatherCatV1.12B45,2013-03-05 14:03:00,
2013-03-05 06:08:00,27.9,7.8,30.03,North,9,0.0,0.0,42,0.00,,,0.00,WeatherCatV1.12B45,2013-03-05 14:08:00,
2013-03-05 06:13:00,28.0,7.9,30.03,North,9,0.0,0.0,42,0.00,,,0.00,WeatherCatV1.12B45,2013-03-05 14:13:00,
2013-03-05 06:18:00,28.4,8.3,30.03,NW,310,0.0,0.0,42,0.00,,,0.00,WeatherCatV1.12B45,2013-03-05 14:18:00,
2013-03-05 06:23:00,28.8,8.6,30.03,West,261,2.7,3.1,42,0.00,,,0.00,WeatherCatV1.12B45,2013-03-05 14:23:00,
2013-03-05 06:28:00,28.8,8.6,30.03,West,280,0.0,0.0,42,0.00,,,0.00,WeatherCatV1.12B45,2013-03-05 14:28:00,
2013-03-05 06:33:00,28.9,8.8,30.00,West,280,0.0,0.0,42,0.00,,,0.00,WeatherCatV1.12B45,2013-03-05 14:33:00,
2013-03-05 06:38:00,29.1,8.9,30.00,West,280,0.0,0.0,42,0.00,,,0.00,WeatherCatV1.12B45,2013-03-05 14:38:00,
2013-03-05 06:43:00,29.3,8.6,30.00,West,280,0.0,0.0,41,0.00,,,0.00,WeatherCatV1.12B45,2013-03-05 14:43:00,
2013-03-05 06:48:00,29.3,8.6,30.00,West,280,0.0,0.0,41,0.00,,,0.00,WeatherCatV1.12B45,2013-03-05 14:48:00,
2013-03-05 06:53:00,29.5,8.7,30.00,WNW,283,0.0,0.0,41,0.00,,,0.00,WeatherCatV1.12B45,2013-03-05 14:53:00,
2013-03-05 06:58:00,29.7,8.9,30.00,WNW,290,0.0,0.0,41,0.00,,,0.00,WeatherCatV1.12B45,2013-03-05 14:58:00,
2013-03-05 07:03:00,30.0,9.2,30.00,West,262,0.0,2.7,41,0.00,,,0.00,WeatherCatV1.12B45,2013-03-05 15:03:00,
2013-03-05 07:08:00,30.2,9.4,30.00,West,263,0.0,0.0,41,0.00,,,0.00,WeatherCatV1.12B45,2013-03-05 15:08:00,
2013-03-05 07:13:00,30.6,9.7,30.00,West,263,0.0,0.0,41,0.00,,,0.00,WeatherCatV1.12B45,2013-03-05 15:13:00,
2013-03-05 07:18:00,30.9,10.0,30.00,West,263,0.0,0.0,41,0.00,,,0.00,WeatherCatV1.12B45,2013-03-05 15:18:00,
2013-03-05 07:23:00,31.1,10.2,30.00,West,263,0.0,0.0,41,0.00,,,0.00,WeatherCatV1.12B45,2013-03-05 15:23:00,
2013-03-05 07:28:00,31.3,10.3,30.00,West,263,0.0,0.0,41,0.00,,,0.00,WeatherCatV1.12B45,2013-03-05 15:28:00,
2013-03-05 07:33:00,31.5,10.5,30.00,West,263,0.0,0.0,41,0.00,,,0.00,WeatherCatV1.12B45,2013-03-05 15:33:00,
2013-03-05 07:38:00,31.8,10.3,30.00,West,263,0.0,0.0,40,0.00,,,0.00,WeatherCatV1.12B45,2013-03-05 15:38:00,
2013-03-05 07:43:00,32.0,10.4,30.00,West,268,0.0,0.0,40,0.00,,,0.00,WeatherCatV1.12B45,2013-03-05 15:43:00,
2013-03-05 07:48:00,32.2,10.6,30.00,NE,42,0.0,0.0,40,0.00,,,0.00,WeatherCatV1.12B45,2013-03-05 15:48:00,
2013-03-05 07:53:00,32.4,10.8,30.00,NE,41,0.0,0.0,40,0.00,,,0.00,WeatherCatV1.12B45,2013-03-05 15:53:00,
2013-03-05 07:58:00,32.5,10.9,30.00,NE,41,0.0,0.0,40,0.00,,,0.00,WeatherCatV1.12B45,2013-03-05 15:58:00,
2013-03-05 08:03:00,32.5,10.9,30.00,NE,41,0.0,0.0,40,0.00,,,0.00,WeatherCatV1.12B45,2013-03-05 16:03:00,
2013-03-05 08:08:00,32.7,11.1,30.00,NE,41,0.0,0.0,40,0.00,,,0.00,WeatherCatV1.12B45,2013-03-05 16:08:00,
2013-03-05 08:13:00,32.9,11.3,30.00,NE,41,0.0,0.0,40,0.00,,,0.00,WeatherCatV1.12B45,2013-03-05 16:13:00,
2013-03-05 08:18:00,33.3,11.6,30.00,NE,41,0.0,0.0,40,0.00,,,0.00,WeatherCatV1.12B45,2013-03-05 16:18:00,
2013-03-05 08:23:00,33.6,11.9,30.00,NE,41,0.0,0.0,40,0.00,,,0.00,WeatherCatV1.12B45,2013-03-05 16:23:00,
2013-03-05 08:28:00,34.0,11.7,30.00,NE,41,0.0,3.1,39,0.00,,,0.00,WeatherCatV1.12B45,2013-03-05 16:28:00,
2013-03-05 08:33:00,34.3,11.4,30.00,NE,41,0.0,0.0,38,0.00,,,0.00,WeatherCatV1.12B45,2013-03-05 16:33:00,
2013-03-05 08:38:00,34.3,11.4,30.00,NNE,32,0.0,4.5,38,0.00,,,0.00,WeatherCatV1.12B45,2013-03-05 16:38:00,
2013-03-05 08:43:00,34.7,11.1,30.00,NNE,32,0.0,3.6,37,0.00,,,0.00,WeatherCatV1.12B45,2013-03-05 16:43:00,
2013-03-05 08:48:00,34.9,11.3,30.00,NE,48,4.0,4.0,37,0.00,,,0.00,WeatherCatV1.12B45,2013-03-05 16:48:00,
2013-03-05 08:53:00,35.4,11.1,30.00,NE,47,0.0,0.0,36,0.00,,,0.00,WeatherCatV1.12B45,2013-03-05 16:53:00,
2013-03-05 08:58:00,35.6,11.3,30.00,NE,47,0.0,0.0,36,0.00,,,0.00,WeatherCatV1.12B45,2013-03-05 16:58:00,
2013-03-05 09:03:00,35.6,11.3,30.00,NE,40,2.7,3.1,36,0.00,,,0.00,WeatherCatV1.12B45,2013-03-05 17:03:00,
2013-03-05 09:08:00,35.6,11.3,30.00,NE,40,0.0,0.0,36,0.00,,,0.00,WeatherCatV1.12B45,2013-03-05 17:08:00,
2013-03-05 09:13:00,35.4,11.1,30.00,NNE,21,0.0,2.2,36,0.00,,,0.00,WeatherCatV1.12B45,2013-03-05 17:13:00,
2013-03-05 09:18:00,35.6,11.3,30.00,NNE,21,0.0,0.0,36,0.00,,,0.00,WeatherCatV1.12B45,2013-03-05 17:18:00,
2013-03-05 09:23:00,35.8,11.5,30.00,NNE,21,0.0,0.0,36,0.00,,,0.00,WeatherCatV1.12B45,2013-03-05 17:23:00,
2013-03-05 09:28:00,35.8,11.5,30.00,NNE,21,0.0,0.0,36,0.00,,,0.00,WeatherCatV1.12B45,2013-03-05 17:28:00,
2013-03-05 09:33:00,36.0,11.6,30.00,ENE,64,0.0,0.0,36,0.00,,,0.00,WeatherCatV1.12B45,2013-03-05 17:33:00,
2013-03-05 09:38:00,36.1,11.8,30.00,ENE,64,0.0,0.0,36,0.00,,,0.00,WeatherCatV1.12B45,2013-03-05 17:38:00,
2013-03-05 09:43:00,36.3,11.3,30.00,West,268,2.2,2.2,35,0.00,,,0.00,WeatherCatV1.12B45,2013-03-05 17:43:00,
2013-03-05 09:46:00,36.7,12.3,30.00,West,269,0.0,0.0,36,0.00,,,0.00,WeatherCatV1.12B45,2013-03-05 17:46:00,
2013-03-05 09:51:00,36.9,11.8,30.00,NE,47,2.7,2.7,35,0.00,,,0.00,WeatherCatV1.12B45,2013-03-05 17:51:00,
2013-03-05 09:56:00,37.2,12.1,30.00,NNW,329,0.0,0.0,35,0.00,,,0.00,WeatherCatV1.12B45,2013-03-05 17:56:00,
2013-03-05 10:01:00,37.4,11.6,30.00,NNW,345,0.0,0.0,34,0.00,,,0.00,WeatherCatV1.12B45,2013-03-05 18:01:00,
2013-03-05 10:06:00,37.4,11.6,30.00,ENE,64,4.9,4.9,34,0.00,,,0.00,WeatherCatV1.12B45,2013-03-05 18:06:00,
2013-03-05 10:11:00,37.2,11.5,30.00,NE,50,0.0,0.0,34,0.00,,,0.00,WeatherCatV1.12B45,2013-03-05 18:11:00,
2013-03-05 10:16:00,37.0,12.0,29.97,NE,50,0.0,0.0,35,0.00,,,0.00,WeatherCatV1.12B45,2013-03-05 18:16:00,
2013-03-05 10:21:00,36.9,11.8,29.97,NE,42,0.0,3.6,35,0.00,,,0.00,WeatherCatV1.12B45,2013-03-05 18:21:00,
2013-03-05 10:26:00,36.7,11.6,29.97,NE,41,0.0,0.0,35,0.00,,,0.00,WeatherCatV1.12B45,2013-03-05 18:26:00,
2013-03-05 10:31:00,36.5,11.5,29.97,NE,41,0.0,0.0,35,0.00,,,0.00,WeatherCatV1.12B45,2013-03-05 18:31:00,
2013-03-05 10:36:00,36.9,11.8,29.97,NE,41,0.0,0.0,35,0.00,,,0.00,WeatherCatV1.12B45,2013-03-05 18:36:00,
2013-03-05 10:41:00,37.4,11.6,29.97,NE,41,0.0,0.0,34,0.00,,,0.00,WeatherCatV1.12B45,2013-03-05 18:41:00,
2013-03-05 10:46:00,38.3,12.4,29.97,NE,34,0.0,0.0,34,0.00,,,0.00,WeatherCatV1.12B45,2013-03-05 18:46:00,
2013-03-05 10:51:00,39.2,12.5,29.97,WNW,299,0.0,0.0,33,0.00,,,0.00,WeatherCatV1.12B45,2013-03-05 18:51:00,
2013-03-05 10:56:00,40.1,13.3,29.97,NE,38,0.0,0.0,33,0.00,,,0.00,WeatherCatV1.12B45,2013-03-05 18:56:00,
2013-03-05 11:01:00,40.5,13.7,29.97,NNE,23,0.0,2.7,33,0.00,,,0.00,WeatherCatV1.12B45,2013-03-05 19:01:00,
2013-03-05 11:06:00,40.3,12.8,29.97,NNE,30,2.2,3.1,32,0.00,,,0.00,WeatherCatV1.12B45,2013-03-05 19:06:00,
2013-03-05 11:11:00,40.3,12.8,29.97,NNW,330,0.0,0.0,32,0.00,,,0.00,WeatherCatV1.12B45,2013-03-05 19:11:00,
2013-03-05 11:16:00,40.5,12.2,29.97,NE,46,2.2,5.4,31,0.00,,,0.00,WeatherCatV1.12B45,2013-03-05 19:16:00,
2013-03-05 11:21:00,40.5,12.2,29.97,NE,34,0.0,0.0,31,0.00,,,0.00,WeatherCatV1.12B45,2013-03-05 19:21:00,
2013-03-05 11:26:00,40.5,13.0,29.97,North,11,0.0,0.0,32,0.00,,,0.00,WeatherCatV1.12B45,2013-03-05 19:26:00,
2013-03-05 11:31:00,40.5,12.2,29.97,NNE,29,0.0,6.3,31,0.00,,,0.00,WeatherCatV1.12B45,2013-03-05 19:31:00,
2013-03-05 11:36:00,40.6,12.4,29.97,WNW,294,0.0,0.0,31,0.00,,,0.00,WeatherCatV1.12B45,2013-03-05 19:36:00,
2013-03-05 11:41:00,40.8,12.6,29.97,NNW,337,0.0,0.0,31,0.00,,,0.00,WeatherCatV1.12B45,2013-03-05 19:41:00,
2013-03-05 11:46:00,40.8,12.6,29.97,NNW,344,0.0,0.0,31,0.00,,,0.00,WeatherCatV1.12B45,2013-03-05 19:46:00,
2013-03-05 11:51:00,40.6,12.4,29.97,NNW,344,0.0,0.0,31,0.00,,,0.00,WeatherCatV1.12B45,2013-03-05 19:51:00,
2013-03-05 11:56:00,40.6,12.4,29.97,North,353,0.0,0.0,31,0.00,,,0.00,WeatherCatV1.12B45,2013-03-05 19:56:00,
2013-03-05 12:01:00,40.5,11.5,29.94,North,11,0.0,3.1,30,0.00,,,0.00,WeatherCatV1.12B45,2013-03-05 20:01:00,
2013-03-05 12:06:00,40.3,11.3,29.94,NNE,24,0.0,3.6,30,0.00,,,0.00,WeatherCatV1.12B45,2013-03-05 20:06:00,
2013-03-05 12:11:00,40.3,11.3,29.94,NW,307,2.7,3.1,30,0.00,,,0.00,WeatherCatV1.12B45,2013-03-05 20:11:00,
2013-03-05 12:16:00,40.3,11.3,29.94,NNW,341,0.0,4.0,30,0.00,,,0.00,WeatherCatV1.12B45,2013-03-05 20:16:00,
2013-03-05 12:21:00,39.9,11.0,29.94,NE,34,3.1,3.6,30,0.00,,,0.00,WeatherCatV1.12B45,2013-03-05 20:21:00,
2013-03-05 12:26:00,39.7,10.9,29.94,NNE,30,2.7,3.6,30,0.00,,,0.00,WeatherCatV1.12B45,2013-03-05 20:26:00,
2013-03-05 12:31:00,39.9,11.0,29.94,ENE,64,0.0,4.0,30,0.00,,,0.00,WeatherCatV1.12B45,2013-03-05 20:31:00,
2013-03-05 12:36:00,40.5,11.5,29.94,NNE,24,4.0,5.8,30,0.00,,,0.00,WeatherCatV1.12B45,2013-03-05 20:36:00,
2013-03-05 12:41:00,41.2,12.1,29.94,NW,320,3.1,5.8,30,0.00,,,0.00,WeatherCatV1.12B45,2013-03-05 20:41:00,
2013-03-05 12:46:00,41.2,11.4,29.94,NNE,30,2.7,5.8,29,0.00,,,0.00,WeatherCatV1.12B45,2013-03-05 20:46:00,
2013-03-05 12:51:00,41.7,12.6,29.94,NE,36,2.7,3.1,30,0.00,,,0.00,WeatherCatV1.12B45,2013-03-05 20:51:00,
2013-03-05 12:56:00,42.4,12.5,29.94,NE,36,2.7,3.1,29,0.00,,,0.00,WeatherCatV1.12B45,2013-03-05 20:56:00,
2013-03-05 13:01:00,43.3,13.2,29.94,North,2,0.0,2.7,29,0.00,,,0.00,WeatherCatV1.12B45,2013-03-05 21:01:00,
2013-03-05 13:06:00,43.3,13.2,29.94,NNE,30,2.7,5.8,29,0.00,,,0.00,WeatherCatV1.12B45,2013-03-05 21:06:00,
2013-03-05 13:11:00,43.5,13.4,29.94,WNW,303,0.0,2.7,29,0.00,,,0.00,WeatherCatV1.12B45,2013-03-05 21:11:00,
2013-03-05 13:16:00,43.3,13.2,29.94,NNE,12,2.7,6.3,29,0.00,,,0.00,WeatherCatV1.12B45,2013-03-05 21:16:00,
2013-03-05 13:21:00,42.8,12.0,29.94,NNE,17,3.6,4.0,28,0.00,,,0.00,WeatherCatV1.12B45,2013-03-05 21:21:00,
2013-03-05 13:26:00,43.0,12.9,29.94,NNE,24,2.7,4.0,29,0.00,,,0.00,WeatherCatV1.12B45,2013-03-05 21:26:00,
2013-03-05 13:32:00,43.0,12.9,29.91,North,10,5.4,5.4,29,0.00,,,0.00,WeatherCatV1.12B45,2013-03-05 21:32:00,
2013-03-05 13:37:00,42.3,12.3,29.91,NNE,33,2.7,5.4,29,0.00,,,0.00,WeatherCatV1.12B45,2013-03-05 21:37:00,
2013-03-05 13:42:00,41.9,12.0,29.91,NE,49,2.2,6.3,29,0.00,,,0.00,WeatherCatV1.12B45,2013-03-05 21:42:00,
2013-03-05 13:47:00,42.1,12.1,29.91,NNW,338,3.6,3.6,29,0.00,,,0.00,WeatherCatV1.12B45,2013-03-05 21:47:00,
2013-03-05 13:52:00,41.9,12.0,29.91,NW,320,3.6,6.3,29,0.00,,,0.00,WeatherCatV1.12B45,2013-03-05 21:52:00,
2013-03-05 13:57:00,42.1,12.1,29.91,ENE,59,2.2,3.1,29,0.00,,,0.00,WeatherCatV1.12B45,2013-03-05 21:57:00,
2013-03-05 14:02:00,42.1,12.1,29.91,SSW,201,2.2,5.8,29,0.00,,,0.00,WeatherCatV1.12B45,2013-03-05 22:02:00,
2013-03-05 14:07:00,42.1,12.1,29.91,NNW,328,0.0,4.0,29,0.00,,,0.00,WeatherCatV1.12B45,2013-03-05 22:07:00,
2013-03-05 14:12:00,41.7,11.8,29.91,NNW,333,2.7,3.6,29,0.00,,,0.00,WeatherCatV1.12B45,2013-03-05 22:12:00,
2013-03-05 14:17:00,41.5,11.7,29.91,NW,309,0.0,2.7,29,0.00,,,0.00,WeatherCatV1.12B45,2013-03-05 22:17:00,
2013-03-05 14:22:00,41.5,11.7,29.91,NNW,329,0.0,3.1,29,0.00,,,0.00,WeatherCatV1.12B45,2013-03-05 22:22:00,
2013-03-05 14:27:00,41.2,11.4,29.91,NNW,334,5.4,5.4,29,0.00,,,0.00,WeatherCatV1.12B45,2013-03-05 22:27:00,
2013-03-05 14:32:00,41.0,11.2,29.91,East,88,0.0,2.7,29,0.00,,,0.00,WeatherCatV1.12B45,2013-03-05 22:32:00,
2013-03-05 14:37:00,40.8,11.1,29.91,West,270,2.2,3.6,29,0.00,,,0.00,WeatherCatV1.12B45,2013-03-05 22:37:00,
2013-03-05 14:42:00,41.0,11.2,29.91,NNW,333,0.0,3.1,29,0.00,,,0.00,WeatherCatV1.12B45,2013-03-05 22:42:00,
2013-03-05 14:47:00,41.0,11.2,29.91,NNW,339,4.0,4.0,29,0.00,,,0.00,WeatherCatV1.12B45,2013-03-05 22:47:00,
2013-03-05 14:52:00,40.6,11.7,29.91,NNW,328,5.4,5.8,30,0.00,,,0.00,WeatherCatV1.12B45,2013-03-05 22:52:00,
2013-03-05 14:57:00,40.3,10.6,29.91,NE,37,4.0,7.2,29,0.00,,,0.00,WeatherCatV1.12B45,2013-03-05 22:57:00,
2013-03-05 15:02:00,40.3,11.3,29.91,NW,322,2.2,4.9,30,0.00,,,0.00,WeatherCatV1.12B45,2013-03-05 23:02:00,
2013-03-05 15:07:00,40.3,11.3,29.91,NE,36,2.2,3.1,30,0.00,,,0.00,WeatherCatV1.12B45,2013-03-05 23:07:00,
2013-03-05 15:12:00,40.6,11.7,29.91,NE,51,2.7,4.5,30,0.00,,,0.00,WeatherCatV1.12B45,2013-03-05 23:12:00,
2013-03-05 15:17:00,40.5,11.5,29.91,NE,37,3.1,5.4,30,0.00,,,0.00,WeatherCatV1.12B45,2013-03-05 23:17:00,
2013-03-05 15:22:00,40.3,11.3,29.91,NE,36,2.7,4.9,30,0.00,,,0.00,WeatherCatV1.12B45,2013-03-05 23:22:00,
2013-03-05 15:27:00,39.9,11.8,29.91,ENE,65,0.0,4.0,31,0.00,,,0.00,WeatherCatV1.12B45,2013-03-05 23:27:00,
2013-03-05 15:32:00,39.6,11.4,29.91,ENE,61,0.0,0.0,31,0.00,,,0.00,WeatherCatV1.12B45,2013-03-05 23:32:00,
2013-03-05 15:37:00,39.6,12.2,29.91,North,353,0.0,0.0,32,0.00,,,0.00,WeatherCatV1.12B45,2013-03-05 23:37:00,
2013-03-05 15:42:00,39.4,12.0,29.91,ENE,60,3.6,3.6,32,0.00,,,0.00,WeatherCatV1.12B45,2013-03-05 23:42:00,
2013-03-05 15:47:00,39.0,12.4,29.91,North,6,0.0,3.1,33,0.00,,,0.00,WeatherCatV1.12B45,2013-03-05 23:47:00,
2013-03-05 15:52:00,39.0,13.1,29.91,ESE,115,0.0,2.2,34,0.00,,,0.00,WeatherCatV1.12B45,2013-03-05 23:52:00,
2013-03-05 15:57:00,39.2,13.2,29.91,ESE,117,0.0,0.0,34,0.00,,,0.00,WeatherCatV1.12B45,2013-03-05 23:57:00,
2013-03-05 16:02:00,39.0,13.7,29.91,NE,41,4.0,4.9,35,0.00,,,0.00,WeatherCatV1.12B45,2013-03-06 00:02:00,
2013-03-05 16:07:00,39.0,13.1,29.91,North,0,2.2,5.4,34,0.00,,,0.00,WeatherCatV1.12B45,2013-03-06 00:07:00,
2013-03-05 16:12:00,39.2,13.9,29.91,NNE,15,3.1,3.1,35,0.00,,,0.00,WeatherCatV1.12B45,2013-03-06 00:12:00,
2013-03-05 16:17:00,39.2,13.9,29.91,NNW,343,0.0,4.0,35,0.00,,,0.00,WeatherCatV1.12B45,2013-03-06 00:17:00,
2013-03-05 16:22:00,39.2,13.9,29.91,NNE,12,5.4,5.4,35,0.00,,,0.00,WeatherCatV1.12B45,2013-03-06 00:22:00,
2013-03-05 16:27:00,39.0,14.4,29.91,WNW,294,0.0,2.2,36,0.00,,,0.00,WeatherCatV1.12B45,2013-03-06 00:27:00,
2013-03-05 16:32:00,38.8,14.2,29.91,NNE,14,0.0,0.0,36,0.00,,,0.00,WeatherCatV1.12B45,2013-03-06 00:32:00,
2013-03-05 16:37:00,38.7,14.7,29.91,NW,326,0.0,0.0,37,0.00,,,0.00,WeatherCatV1.12B45,2013-03-06 00:37:00,
2013-03-05 16:42:00,38.7,14.7,29.91,NE,53,0.0,0.0,37,0.00,,,0.00,WeatherCatV1.12B45,2013-03-06 00:42:00,
2013-03-05 16:47:00,38.5,14.5,29.91,NE,54,0.0,0.0,37,0.00,,,0.00,WeatherCatV1.12B45,2013-03-06 00:47:00,
2013-03-05 16:52:00,38.5,15.1,29.91,North,353,0.0,2.7,38,0.00,,,0.00,WeatherCatV1.12B45,2013-03-06 00:52:00,
2013-03-05 16:57:00,38.3,14.9,29.91,NE,56,0.0,0.0,38,0.00,,,0.00,WeatherCatV1.12B45,2013-03-06 00:57:00,
2013-03-05 17:02:00,38.1,15.4,29.91,NE,56,0.0,0.0,39,0.00,,,0.00,WeatherCatV1.12B45,2013-03-06 01:02:00,
2013-03-05 17:07:00,37.9,15.2,29.91,NE,56,0.0,0.0,39,0.00,,,0.00,WeatherCatV1.12B45,2013-03-06 01:07:00,
2013-03-05 17:12:00,37.9,15.2,29.91,NW,305,0.0,3.1,39,0.00,,,0.00,WeatherCatV1.12B45,2013-03-06 01:12:00,
2013-03-05 17:17:00,37.8,15.1,29.91,NNE,20,0.0,0.0,39,0.00,,,0.00,WeatherCatV1.12B45,2013-03-06 01:17:00,
2013-03-05 17:22:00,37.6,15.5,29.91,NNE,20,2.7,2.7,40,0.00,,,0.00,WeatherCatV1.12B45,2013-03-06 01:22:00,
2013-03-05 17:27:00,37.4,15.3,29.91,NNE,30,0.0,0.0,40,0.00,,,0.00,WeatherCatV1.12B45,2013-03-06 01:27:00,
2013-03-05 17:32:00,37.2,15.7,29.91,NNE,30,0.0,0.0,41,0.00,,,0.00,WeatherCatV1.12B45,2013-03-06 01:32:00,
2013-03-05 17:37:00,37.0,15.6,29.91,NNE,13,0.0,2.7,41,0.00,,,0.00,WeatherCatV1.12B45,2013-03-06 01:37:00,
2013-03-05 17:42:00,36.9,15.4,29.91,NNE,13,0.0,0.0,41,0.00,,,0.00,WeatherCatV1.12B45,2013-03-06 01:42:00,
2013-03-05 17:47:00,36.9,15.4,29.91,NNE,13,0.0,0.0,41,0.00,,,0.00,WeatherCatV1.12B45,2013-03-06 01:47:00,
2013-03-05 17:52:00,36.5,15.1,29.91,NNE,13,0.0,0.0,41,0.00,,,0.00,WeatherCatV1.12B45,2013-03-06 01:52:00,
2013-03-05 17:57:00,36.3,15.4,29.91,NNE,13,0.0,0.0,42,0.00,,,0.00,WeatherCatV1.12B45,2013-03-06 01:57:00,
2013-03-05 18:02:00,36.1,15.3,29.91,NNE,13,0.0,0.0,42,0.00,,,0.00,WeatherCatV1.12B45,2013-03-06 02:02:00,
2013-03-05 18:07:00,36.1,15.8,29.91,NNE,13,0.0,0.0,43,0.00,,,0.00,WeatherCatV1.12B45,2013-03-06 02:07:00,
2013-03-05 18:12:00,36.3,16.5,29.91,NNE,13,0.0,0.0,44,0.00,,,0.00,WeatherCatV1.12B45,2013-03-06 02:12:00,
2013-03-05 18:17:00,36.3,18.0,29.91,NNE,13,0.0,0.0,47,0.00,,,0.00,WeatherCatV1.12B45,2013-03-06 02:17:00,
2013-03-05 18:22:00,36.3,18.5,29.91,NE,49,0.0,0.0,48,0.00,,,0.00,WeatherCatV1.12B45,2013-03-06 02:22:00,
2013-03-05 18:27:00,36.1,18.8,29.91,NE,49,0.0,0.0,49,0.00,,,0.00,WeatherCatV1.12B45,2013-03-06 02:27:00,
2013-03-05 18:32:00,36.0,18.7,29.88,NE,49,0.0,0.0,49,0.00,,,0.00,WeatherCatV1.12B45,2013-03-06 02:32:00,
2013-03-05 18:37:00,35.8,18.5,29.88,NE,49,0.0,0.0,49,0.00,,,0.00,WeatherCatV1.12B45,2013-03-06 02:37:00,
2013-03-05 18:42:00,35.8,19.0,29.88,NE,49,0.0,0.0,50,0.00,,,0.00,WeatherCatV1.12B45,2013-03-06 02:42:00,
2013-03-05 18:47:00,35.8,18.5,29.91,NE,49,0.0,2.7,49,0.00,,,0.00,WeatherCatV1.12B45,2013-03-06 02:47:00,
2013-03-05 18:52:00,35.8,18.0,29.91,NE,49,0.0,0.0,48,0.00,,,0.00,WeatherCatV1.12B45,2013-03-06 02:52:00,
2013-03-05 18:57:00,35.8,18.0,29.91,North,0,0.0,0.0,48,0.00,,,0.00,WeatherCatV1.12B45,2013-03-06 02:57:00,
2013-03-05 19:02:00,35.8,18.0,29.91,NNE,24,0.0,0.0,48,0.00,,,0.00,WeatherCatV1.12B45,2013-03-06 03:02:00,
2013-03-05 19:07:00,35.6,18.3,29.91,NW,318,2.2,4.0,49,0.00,,,0.00,WeatherCatV1.12B45,2013-03-06 03:07:00,
2013-03-05 19:12:00,35.4,18.6,29.91,West,279,2.7,3.1,50,0.00,,,0.00,WeatherCatV1.12B45,2013-03-06 03:12:00,
2013-03-05 19:17:00,35.4,19.1,29.91,NNE,33,0.0,4.0,51,0.00,,,0.00,WeatherCatV1.12B45,2013-03-06 03:17:00,
2013-03-05 19:22:00,35.2,18.9,29.91,ENE,57,0.0,0.0,51,0.00,,,0.00,WeatherCatV1.12B45,2013-03-06 03:22:00,
2013-03-05 19:27:00,35.2,19.4,29.91,North,1,0.0,2.2,52,0.00,,,0.00,WeatherCatV1.12B45,2013-03-06 03:27:00,
2013-03-05 19:32:00,35.2,19.4,29.88,NNW,343,2.2,4.0,52,0.00,,,0.00,WeatherCatV1.12B45,2013-03-06 03:32:00,
2013-03-05 19:37:00,35.1,19.7,29.88,North,357,0.0,0.0,53,0.00,,,0.00,WeatherCatV1.12B45,2013-03-06 03:37:00,
2013-03-05 19:42:00,35.1,19.7,29.88,North,6,0.0,3.1,53,0.00,,,0.00,WeatherCatV1.12B45,2013-03-06 03:42:00,
2013-03-05 19:47:00,35.1,19.7,29.88,North,11,4.9,4.9,53,0.00,,,0.00,WeatherCatV1.12B45,2013-03-06 03:47:00,
2013-03-05 19:52:00,35.1,20.1,29.88,North,9,3.1,5.4,54,0.00,,,0.00,WeatherCatV1.12B45,2013-03-06 03:52:00,
2013-03-05 19:57:00,34.9,19.9,29.88,NW,308,0.0,0.0,54,0.00,,,0.00,WeatherCatV1.12B45,2013-03-06 03:57:00,
2013-03-05 20:02:00,34.7,19.8,29.88,NNE,21,0.0,0.0,54,0.00,,,0.00,WeatherCatV1.12B45,2013-03-06 04:02:00,
2013-03-05 20:07:00,34.3,19.4,29.88,ENE,65,3.6,4.9,54,0.00,,,0.00,WeatherCatV1.12B45,2013-03-06 04:07:00,
2013-03-05 20:12:00,34.0,19.5,29.88,WSW,248,3.1,3.1,55,0.00,,,0.00,WeatherCatV1.12B45,2013-03-06 04:12:00,
2013-03-05 20:17:00,33.8,19.8,29.88,WNW,299,2.7,2.7,56,0.00,,,0.00,WeatherCatV1.12B45,2013-03-06 04:17:00,
2013-03-05 20:22:00,33.8,20.2,29.88,NNW,327,0.0,4.0,57,0.00,,,0.00,WeatherCatV1.12B45,2013-03-06 04:22:00,
2013-03-05 20:27:00,33.8,19.8,29.88,NW,318,0.0,0.0,56,0.00,,,0.00,WeatherCatV1.12B45,2013-03-06 04:27:00,
2013-03-05 20:32:00,33.8,19.8,29.88,NW,307,0.0,0.0,56,0.00,,,0.00,WeatherCatV1.12B45,2013-03-06 04:32:00,
2013-03-05 20:37:00,33.8,19.8,29.88,North,350,0.0,4.0,56,0.00,,,0.00,WeatherCatV1.12B45,2013-03-06 04:37:00,
2013-03-05 20:42:00,33.8,20.2,29.88,NNE,14,0.0,0.0,57,0.00,,,0.00,WeatherCatV1.12B45,2013-03-06 04:42:00,
2013-03-05 20:47:00,34.0,20.8,29.88,NNE,14,0.0,0.0,58,0.00,,,0.00,WeatherCatV1.12B45,2013-03-06 04:47:00,
2013-03-05 20:52:00,34.0,20.4,29.88,North,6,0.0,0.0,57,0.00,,,0.00,WeatherCatV1.12B45,2013-03-06 04:52:00,
2013-03-05 20:57:00,34.2,20.5,29.88,North,6,0.0,0.0,57,0.00,,,0.00,WeatherCatV1.12B45,2013-03-06 04:57:00,
2013-03-05 21:00:00,34.2,20.5,29.85,NNE,30,0.0,2.2,57,0.00,,,0.00,WeatherCatV1.12B45,2013-03-06 05:00:00,
2013-03-05 21:05:00,34.2,20.5,29.85,West,268,0.0,0.0,57,0.00,,,0.00,WeatherCatV1.12B45,2013-03-06 05:05:00,
2013-03-05 21:10:00,34.2,20.5,29.85,North,349,0.0,3.1,57,0.00,,,0.00,WeatherCatV1.12B45,2013-03-06 05:10:00,
2013-03-05 21:15:00,34.2,20.5,29.88,North,8,0.0,0.0,57,0.00,,,0.00,WeatherCatV1.12B45,2013-03-06 05:15:00,
2013-03-05 21:20:00,34.2,20.5,29.88,NNW,334,3.1,5.8,57,0.00,,,0.00,WeatherCatV1.12B45,2013-03-06 05:20:00,
2013-03-05 21:25:00,34.2,20.5,29.88,West,274,0.0,0.0,57,0.00,,,0.00,WeatherCatV1.12B45,2013-03-06 05:25:00,
2013-03-05 21:30:00,34.2,20.5,29.88,North,10,0.0,3.6,57,0.00,,,0.00,WeatherCatV1.12B45,2013-03-06 05:30:00,
2013-03-05 21:35:00,34.2,20.5,29.88,West,264,0.0,3.1,57,0.00,,,0.00,WeatherCatV1.12B45,2013-03-06 05:35:00,
2013-03-05 21:40:00,34.2,20.1,29.88,NNE,25,0.0,0.0,56,0.00,,,0.00,WeatherCatV1.12B45,2013-03-06 05:40:00,
2013-03-05 21:45:00,34.0,20.0,29.88,NNE,25,0.0,0.0,56,0.00,,,0.00,WeatherCatV1.12B45,2013-03-06 05:45:00,
2013-03-05 21:50:00,33.8,19.8,29.88,NNE,25,0.0,0.0,56,0.00,,,0.00,WeatherCatV1.12B45,2013-03-06 05:50:00,
2013-03-05 21:55:00,33.8,19.8,29.88,NNE,25,0.0,0.0,56,0.00,,,0.00,WeatherCatV1.12B45,2013-03-06 05:55:00,
2013-03-05 22:00:00,33.6,20.0,29.85,NNW,333,0.0,0.0,57,0.00,,,0.00,WeatherCatV1.12B45,2013-03-06 06:00:00,
2013-03-05 22:05:00,33.3,19.7,29.85,WSW,239,0.0,0.0,57,0.00,,,0.00,WeatherCatV1.12B45,2013-03-06 06:05:00,
2013-03-05 22:10:00,33.6,20.4,29.85,WSW,238,0.0,0.0,58,0.00,,,0.00,WeatherCatV1.12B45,2013-03-06 06:10:00,
2013-03-05 22:15:00,33.6,20.4,29.85,WSW,239,0.0,0.0,58,0.00,,,0.00,WeatherCatV1.12B45,2013-03-06 06:15:00,
2013-03-05 22:20:00,33.6,20.0,29.85,NW,324,0.0,0.0,57,0.00,,,0.00,WeatherCatV1.12B45,2013-03-06 06:20:00,
2013-03-05 22:25:00,33.6,20.0,29.85,NNW,333,0.0,0.0,57,0.00,,,0.00,WeatherCatV1.12B45,2013-03-06 06:25:00,
2013-03-05 22:30:00,33.3,19.7,29.85,NNW,333,0.0,0.0,57,0.00,,,0.00,WeatherCatV1.12B45,2013-03-06 06:30:00,
2013-03-05 22:35:00,33.1,19.5,29.85,NNW,333,0.0,0.0,57,0.00,,,0.00,WeatherCatV1.12B45,2013-03-06 06:35:00,
2013-03-05 22:40:00,32.9,19.4,29.85,NNW,333,0.0,0.0,57,0.00,,,0.00,WeatherCatV1.12B45,2013-03-06 06:40:00,
2013-03-05 22:45:00,32.7,19.6,29.85,NNW,333,0.0,0.0,58,0.00,,,0.00,WeatherCatV1.12B45,2013-03-06 06:45:00,
2013-03-05 22:50:00,32.9,20.2,29.85,NNW,333,0.0,0.0,59,0.00,,,0.00,WeatherCatV1.12B45,2013-03-06 06:50:00,
2013-03-05 22:55:00,33.1,20.3,29.85,NW,318,0.0,0.0,59,0.00,,,0.00,WeatherCatV1.12B45,2013-03-06 06:55:00,
2013-03-05 23:00:00,33.3,20.1,29.85,North,353,0.0,0.0,58,0.00,,,0.00,WeatherCatV1.12B45,2013-03-06 07:00:00,
2013-03-05 23:05:00,33.6,20.4,29.85,NNW,341,0.0,0.0,58,0.00,,,0.00,WeatherCatV1.12B45,2013-03-06 07:05:00,
2013-03-05 23:10:00,33.8,20.2,29.85,NNW,341,0.0,0.0,57,0.00,,,0.00,WeatherCatV1.12B45,2013-03-06 07:10:00,
2013-03-05 23:15:00,33.8,20.2,29.85,NNW,341,0.0,0.0,57,0.00,,,0.00,WeatherCatV1.12B45,2013-03-06 07:15:00,
2013-03-05 23:20:00,34.0,20.4,29.85,NNW,341,0.0,0.0,57,0.00,,,0.00,WeatherCatV1.12B45,2013-03-06 07:20:00,
2013-03-05 23:25:00,34.0,20.0,29.85,NNW,341,0.0,0.0,56,0.00,,,0.00,WeatherCatV1.12B45,2013-03-06 07:25:00,
2013-03-05 23:30:00,34.2,19.7,29.85,NNW,341,0.0,0.0,55,0.00,,,0.00,WeatherCatV1.12B45,2013-03-06 07:30:00,
2013-03-05 23:35:00,34.3,19.9,29.85,WSW,243,0.0,0.0,55,0.00,,,0.00,WeatherCatV1.12B45,2013-03-06 07:35:00,
2013-03-05 23:40:00,34.3,19.4,29.85,WSW,243,0.0,0.0,54,0.00,,,0.00,WeatherCatV1.12B45,2013-03-06 07:40:00,
2013-03-05 23:45:00,34.3,19.4,29.85,WSW,243,0.0,0.0,54,0.00,,,0.00,WeatherCatV1.12B45,2013-03-06 07:45:00,
2013-03-05 23:50:00,34.3,19.4,29.85,WSW,243,0.0,0.0,54,0.00,,,0.00,WeatherCatV1.12B45,2013-03-06 07:50:00,
2013-03-05 23:55:00,34.3,19.4,29.85,WSW,243,0.0,0.0,54,0.00,,,0.00,WeatherCatV1.12B45,2013-03-06 07:55:00,